Regional Weather Roundup
Issued by NWS Newport/Morehead, NC

Current Version | Previous Version | Text Only | Print | Product List | Glossary On
Versions: 1 2 3 4 5 6 7 8 9 10 11 12 13 14 15 16 17 18 19 20 21 22 23 24 25 26 27 28 29 30 31 32 33 34 35 36 37 38 39 40 41 42 43 44 45 46 47 48 49 50
000
ASUS42 KMHX 252213
RWRMHX
WEATHER ROUNDUP FOR EASTERN NORTH CAROLINA
NATIONAL WEATHER SERVICE NEWPORT/MOREHEAD CITY NC
500 PM EST SAT FEB 25 2017

NOTE: "FAIR" INDICATES FEW OR NO CLOUDS BELOW 12,000 FEET
WITH NO SIGNIFICANT WEATHER AND/OR OBSTRUCTIONS TO VISIBILITY

NCZ015>017-031-032-045>047-102-103-252300-
NORTH COAST

CITY           SKY/WX    TMP DP  RH WIND       PRES   REMARKS
EDENTON        MOSUNNY   75  59  55 S17       29.56F
ELIZABETH CITY SUNNY     74  58  57 S15G23    29.55F
KITTY HAWK     NOT AVBL
MANTEO         PTCLDY    65  60  82 S15       29.61S

$$

NCZ045>047-081-094-103-104-252300-
CENTRAL COAST

CITY           SKY/WX    TMP DP  RH WIND       PRES   REMARKS
FRISCO         CLEAR     71  62  73 SW18G31   29.65F HAZE

$$

NCZ095-097-098-100-101-252300-
SOUTHERN COAST

CITY           SKY/WX    TMP DP  RH WIND       PRES   REMARKS
BEAUFORT       SUNNY     70  64  81 SW20G31   29.65F
CEDAR ISLAND   NOT AVBL
JACKSONVILLE   MOSUNNY   74  63  68 S14       29.62F
PINEY ISLAND   PTCLDY   N/A N/A N/A S21G33    29.64F
WILMINGTON     SUNNY     72  58  61 SW18G28   29.66S


$$

NCZ011>013-027>030-043-044-078>080-089-090>093-098-252300-
COASTAL PLAIN

CITY           SKY/WX    TMP DP  RH WIND       PRES   REMARKS
AHOSKIE          N/A     76  55  48 S8        29.53R
CLINTON        SUNNY     78  56  48 SW9G21    29.62S
ELIZABETHTOWN  MOSUNNY   78  55  45 SW13      29.64S
GOLDSBORO      SUNNY     79  51  37 SW16G33   29.57R
GREENVILLE     MOSUNNY   81  55  41 SW18G28   29.60S
HAVELOCK       MOSUNNY   71  62  73 SW16G25   29.65F
KENANSVILLE    MOSUNNY   77  54  44 SW10G24   29.61S
KINSTON        SUNNY     81  52  36 SW16G28   29.59S
NEW BERN       PTSUNNY   73  63  70 S12       29.62F
RICHLANDS      MOSUNNY   77  61  57 S17       29.62S
ROCKY MOUNT    MOSUNNY   78  53  41 SW20G28   29.56R
WASHINGTON     MOSUNNY   77  59  53 SW10G18   29.57F
WHITEVILLE     MOSUNNY   78  54  43 SW9G21    29.65F

$$

AMZ130-135-150-152-154-156-158-170-250-252-270-ANZ085-086-088-633-658-670-252300-
MARINE OBSERVATIONS

STATION/POSITION TIME  TEMP    WIND        PRES    WAVE   SWELL
                       AIR SEA DIR/SP/G            HT/PER HT/PER
                 (UTC) (F)     (DEG/KT/KT) (MB)    (FT/S) (FT/S)
CHESAPEAKE LIGHT NOT AVBL
64 E VA BEACH    2150   60 55  180/ 17/ 19 1001.4    5/11   5/11
DUCK             2148   70 50  180/ 18/ 22 1000.8
2 E DUCK         2130      51                N/A     4/12   2/12
OREGON INLET     2148          180/ 19/ 22 1002.8
13E OREGON INLT  NOT AVBL
HATTERAS CG      2148   69 64  200/ 12/ 17 1003.8
DIAMOND BUOY     2150   73 76  220/ 23/ 27 1004.3    7/11   5/11
CAPE LOOKOUT     2200   71     200/ 20/ 24 1004.2
BEAUFORT LAB     2148   69 64  210/ 17/ 24 1003.3
30 SE NEW RVR IN 2108   69     220/ 16/ 21 1005.3
30 SE NEW RVR IN 2143      69                N/A     7/11   3/11
27 SE WRIGHTSVLE 2108   69 65  200/ 16/ 23 1004.6
5 SE WRIGHTSVLE  2108   63 59  210/ 12/ 19 1005.2
225 S CAPE HAT   2150   69 71  260/ 14/ 17 1009.7    7/10   7/10
41 SE CHARLESTON 2150   71 71  220/ 19/ 21 1007.2    6/10   3/10

$$




USA.gov is the U.S. government's official web portal to all federal, state and local government web resources and services.